Cedar Rapids, IA

1:15 AM CST on January 22, 2018 (GMT -0600)
The Eastern Iowa Airport

Weather History for KCID - February, 2012

Change the Weather History Date:

Sunday, February 5, 2012

  Actual Average Record
Temperature  
Mean Temperature 29 °F 21 °F  
Max Temperature 33 °F 30 °F 62 °F (1946)
Min Temperature 25 °F 13 °F -21 °F (1979)
Degree Days  
Heating Degree Days 36 44  
Month to date heating degree days 163 220  
Since 1 July heating degree days 3752 4368  
Cooling Degree Days 0 0  
Month to date cooling degree days 0 0  
Year to date cooling degree days 0 0  
Moisture  
Dew Point 26 °F    
Average Humidity 85    
Maximum Humidity 92    
Minimum Humidity 78    
Precipitation  
Precipitation 0.00 in 0.04 in 0.28 in (1984)
Month to date precipitation 0.21 0.18  
Year to date precipitation 0.60 1.10  
Sea Level Pressure  
Sea Level Pressure 30.33 in    
Wind  
Wind Speed 8 mph (NNW)    
Max Wind Speed 14 mph    
Max Gust Speed 16 mph    
Visibility 5 miles    
Events      
T = Trace of Precipitation, MM = Missing Value Source: NWS Daily Summary

Daily Weather History Graph

Daily Weather History Graph

Search for Another Location

Airport or City:

Trip Planner

Search our weather history database for the weather conditions in past years. The results will help you decide how hot, cold, wet, or windy it might be!

Date:

Astronomy

Feb. 05, 2012 Rise Set
Actual Time 7:15 AM CST 5:26 PM CST
Civil Twilight 6:46 AM CST 5:55 PM CST
Nautical Twilight 6:13 AM CST 6:29 PM CST
Astronomical Twilight 5:40 AM CST 7:01 PM CST
Moon 3:24 PM CST (2/5) 5:28 AM CST (2/5)
Length of Visible Light 11h 09m
Length of Day
10h 10m
Waxing Gibbous, 95% of the Moon is Illuminated
Feb 5
Waxing Gibbous
Feb 7
Full
Feb 14
Last Quarter
Feb 21
New
Feb 29
First Quarter

Hourly Weather History & Observations

Time (CST) Temp. Windchill Dew Point Humidity Pressure Visibility Wind Dir Wind Speed Gust Speed Precip Events Conditions
12:52 AM 30.9 °F 22.2 °F 26.1 °F 82% 30.28 in 10.0 mi NNW 10.4 mph - N/A   Clear
1:52 AM 28.9 °F 19.8 °F 25.0 °F 85% 30.28 in 9.0 mi NNW 10.4 mph - N/A   Clear
2:52 AM 28.0 °F 18.1 °F 25.0 °F 88% 30.29 in 6.0 mi NNW 11.5 mph - N/A   Clear
3:52 AM 27.0 °F 17.3 °F 24.1 °F 89% 30.30 in 5.0 mi NNW 10.4 mph - N/A   Clear
4:52 AM 26.1 °F 16.2 °F 24.1 °F 92% 30.31 in 5.0 mi NNW 10.4 mph - N/A   Clear
5:20 AM 24.8 °F 13.4 °F 23.0 °F 93% 30.28 in 3.0 mi NW 12.7 mph - N/A   Scattered Clouds
5:25 AM 24.8 °F 13.4 °F 24.8 °F 100% 30.28 in 3.0 mi NNW 12.7 mph - N/A   Mostly Cloudy
5:52 AM 26.1 °F 14.5 °F 25.0 °F 96% 30.32 in 3.0 mi North 13.8 mph - N/A   Overcast
5:55 AM 26.6 °F 14.3 °F 24.8 °F 93% 30.29 in 1.0 mi NNW 16.1 mph - N/A   Overcast
6:50 AM 28.4 °F 18.5 °F 26.6 °F 93% 30.30 in 3.0 mi North 11.5 mph - N/A   Overcast
6:52 AM 28.0 °F 17.0 °F 26.1 °F 92% 30.33 in 3.0 mi North 13.8 mph - N/A   Overcast
7:52 AM 28.9 °F 20.4 °F 27.0 °F 92% 30.34 in 3.0 mi NNW 9.2 mph - N/A   Overcast
8:52 AM 28.9 °F 21.1 °F 27.0 °F 92% 30.35 in 4.0 mi North 8.1 mph - N/A   Overcast
9:52 AM 30.0 °F 22.4 °F 27.0 °F 88% 30.37 in 5.0 mi North 8.1 mph - N/A   Overcast
10:14 AM 30.2 °F 22.6 °F 26.6 °F 86% 30.34 in 5.0 mi NNE 8.1 mph - N/A   Overcast
10:52 AM 30.0 °F 25.2 °F 27.0 °F 88% 30.38 in 6.0 mi North 4.6 mph - N/A   Overcast
11:52 AM 32.0 °F 25.6 °F 28.0 °F 85% 30.37 in 7.0 mi North 6.9 mph - N/A   Overcast
12:52 PM 32.0 °F 25.6 °F 28.0 °F 85% 30.36 in 7.0 mi North 6.9 mph - N/A   Overcast
1:52 PM 32.0 °F 26.4 °F 28.0 °F 85% 30.35 in 7.0 mi NW 5.8 mph - N/A   Overcast
2:52 PM 32.0 °F 26.4 °F 28.0 °F 85% 30.34 in 6.0 mi Variable 5.8 mph - N/A   Overcast
3:52 PM 30.9 °F 24.3 °F 28.0 °F 89% 30.35 in 6.0 mi NW 6.9 mph - N/A   Overcast
4:52 PM 30.9 °F 26.2 °F 27.0 °F 85% 30.35 in 5.0 mi WNW 4.6 mph - N/A   Overcast
5:52 PM 30.0 °F 23.2 °F 27.0 °F 88% 30.35 in 6.0 mi NW 6.9 mph - N/A   Overcast
6:52 PM 28.9 °F 21.9 °F 27.0 °F 92% 30.35 in 5.0 mi NW 6.9 mph - N/A   Overcast
7:05 PM 28.4 °F 21.2 °F 26.6 °F 93% 30.32 in 5.0 mi West 6.9 mph - N/A   Overcast
7:52 PM 28.9 °F 21.9 °F 27.0 °F 92% 30.35 in 5.0 mi West 6.9 mph - N/A   Overcast
8:52 PM 28.0 °F 19.3 °F 27.0 °F 96% 30.34 in 5.0 mi West 9.2 mph - N/A   Overcast
9:52 PM 28.0 °F 20.0 °F 26.1 °F 92% 30.32 in 5.0 mi West 8.1 mph - N/A   Overcast
10:52 PM 28.0 °F 20.0 °F 26.1 °F 92% 30.31 in 4.0 mi WNW 8.1 mph - N/A   Overcast
11:52 PM 27.0 °F 21.6 °F 25.0 °F 92% 30.29 in 4.0 mi NW 4.6 mph - N/A   Overcast